Time,TemperatureF,DewpointF,PressureIn,WindDirection,WindDirectionDegrees,WindSpeedMPH,WindSpeedGustMPH,Humidity,HourlyPrecipIn,Conditions,Clouds,dailyrainin,SoftwareType,DateUTC
2013-02-23 00:03:00,74.0,68.0,30.06,SSE,156,12.0,19.0,81,-99.99,,,-99.99,,2013-02-23 05:03:00,
2013-02-23 00:12:00,74.0,69.0,30.06,SSE,155,13.0,21.0,82,-99.99,,,-99.99,,2013-02-23 05:12:00,
2013-02-23 00:23:00,74.0,69.0,30.06,SSE,155,13.0,21.0,82,-99.99,,,-99.99,,2013-02-23 05:23:00,
2013-02-23 00:33:00,74.0,69.0,30.06,SSE,155,13.0,21.0,82,-99.99,,,-99.99,,2013-02-23 05:33:00,
2013-02-23 00:42:00,74.0,69.0,30.06,SSE,155,13.0,21.0,82,-99.99,,,-99.99,,2013-02-23 05:42:00,
2013-02-23 01:02:00,73.0,68.0,30.04,SSE,160,12.0,18.0,84,-99.99,,,-99.99,,2013-02-23 06:02:00,
2013-02-23 01:11:00,73.0,67.0,30.04,SSE,164,12.0,18.0,82,-99.99,,,-99.99,,2013-02-23 06:11:00,
2013-02-23 01:23:00,73.0,67.0,30.04,SSE,164,12.0,18.0,82,-99.99,,,-99.99,,2013-02-23 06:23:00,
2013-02-23 01:32:00,73.0,67.0,30.04,SSE,164,12.0,18.0,82,-99.99,,,-99.99,,2013-02-23 06:32:00,
2013-02-23 01:42:00,72.0,68.0,30.03,SSE,165,11.0,22.0,85,-99.99,,,-99.99,,2013-02-23 06:42:00,
2013-02-23 01:52:00,72.0,66.0,30.02,SSE,164,8.0,12.0,81,-99.99,,,-99.99,,2013-02-23 06:52:00,
2013-02-23 02:01:00,72.0,66.0,30.02,SSE,164,8.0,12.0,81,-99.99,,,-99.99,,2013-02-23 07:01:00,
2013-02-23 02:11:00,73.0,66.0,30.02,SSE,163,7.0,12.0,79,-99.99,,,-99.99,,2013-02-23 07:11:00,
2013-02-23 02:21:00,73.0,66.0,30.02,SSE,163,7.0,12.0,79,-99.99,,,-99.99,,2013-02-23 07:21:00,
2013-02-23 02:32:00,73.0,66.0,30.02,SSE,163,7.0,12.0,79,-99.99,,,-99.99,,2013-02-23 07:32:00,
2013-02-23 02:42:00,74.0,69.0,30.01,SSE,164,11.0,19.0,85,-99.99,,,-99.99,,2013-02-23 07:42:00,
2013-02-23 02:52:00,74.0,68.0,30.00,SSE,165,12.0,21.0,83,-99.99,,,-99.99,,2013-02-23 07:52:00,
2013-02-23 03:01:00,74.0,68.0,30.00,SSE,165,12.0,21.0,83,-99.99,,,-99.99,,2013-02-23 08:01:00,
2013-02-23 03:11:00,73.0,68.0,30.00,SSE,164,12.0,20.0,83,-99.99,,,-99.99,,2013-02-23 08:11:00,
2013-02-23 03:21:00,73.0,68.0,30.00,SSE,164,12.0,20.0,83,-99.99,,,-99.99,,2013-02-23 08:21:00,
2013-02-23 03:32:00,73.0,68.0,30.00,SSE,164,12.0,20.0,83,-99.99,,,-99.99,,2013-02-23 08:32:00,
2013-02-23 03:42:00,73.0,68.0,30.00,SSE,164,12.0,20.0,83,-99.99,,,-99.99,,2013-02-23 08:42:00,
2013-02-23 03:53:00,73.0,68.0,29.99,SSE,168,12.0,21.0,83,-99.99,,,-99.99,,2013-02-23 08:53:00,
2013-02-23 04:02:00,73.0,68.0,29.99,SSE,168,12.0,21.0,83,-99.99,,,-99.99,,2013-02-23 09:02:00,
2013-02-23 04:11:00,73.0,68.0,29.99,SSE,168,11.0,19.0,82,-99.99,,,-99.99,,2013-02-23 09:11:00,
2013-02-23 04:22:00,73.0,68.0,29.99,SSE,168,11.0,19.0,82,-99.99,,,-99.99,,2013-02-23 09:22:00,
2013-02-23 04:32:00,73.0,68.0,29.99,SSE,168,11.0,19.0,82,-99.99,,,-99.99,,2013-02-23 09:32:00,
2013-02-23 04:42:00,73.0,67.0,29.98,South,169,12.0,21.0,82,-99.99,,,-99.99,,2013-02-23 09:42:00,
2013-02-23 04:52:00,73.0,67.0,29.98,South,173,12.0,21.0,82,-99.99,,,-99.99,,2013-02-23 09:52:00,
2013-02-23 05:01:00,73.0,67.0,29.98,South,173,12.0,21.0,82,-99.99,,,-99.99,,2013-02-23 10:01:00,
2013-02-23 05:11:00,73.0,67.0,29.99,South,173,12.0,19.0,82,-99.99,,,-99.99,,2013-02-23 10:11:00,
2013-02-23 05:21:00,73.0,67.0,29.99,South,173,12.0,19.0,82,-99.99,,,-99.99,,2013-02-23 10:21:00,
2013-02-23 05:32:00,73.0,67.0,29.99,South,173,12.0,19.0,82,-99.99,,,-99.99,,2013-02-23 10:32:00,
2013-02-23 05:42:00,73.0,67.0,30.00,South,172,10.0,19.0,82,-99.99,,,-99.99,,2013-02-23 10:42:00,
2013-02-23 05:52:00,73.0,67.0,30.00,South,171,10.0,17.0,82,-99.99,,,-99.99,,2013-02-23 10:52:00,
2013-02-23 06:02:00,73.0,67.0,30.00,South,171,10.0,17.0,82,-99.99,,,-99.99,,2013-02-23 11:02:00,
2013-02-23 06:11:00,73.0,67.0,30.00,South,171,11.0,19.0,82,-99.99,,,-99.99,,2013-02-23 11:11:00,
2013-02-23 06:22:00,73.0,67.0,30.00,South,171,11.0,19.0,82,-99.99,,,-99.99,,2013-02-23 11:22:00,
2013-02-23 06:30:00,73.0,67.0,30.00,South,176,10.0,15.0,81,-99.99,,,-99.99,,2013-02-23 11:30:00,
2013-02-23 06:32:00,73.0,67.0,30.00,South,171,11.0,19.0,82,-99.99,,,-99.99,,2013-02-23 11:32:00,
2013-02-23 06:42:00,73.0,67.0,30.00,South,177,9.0,16.0,81,-99.99,,,-99.99,,2013-02-23 11:42:00,
2013-02-23 06:53:00,73.0,67.0,30.00,South,176,10.0,15.0,81,-99.99,,,-99.99,,2013-02-23 11:53:00,
2013-02-23 07:02:00,73.0,67.0,30.00,South,176,10.0,15.0,81,-99.99,,,-99.99,,2013-02-23 12:02:00,
2013-02-23 07:11:00,73.0,67.0,30.00,South,176,10.0,15.0,81,-99.99,,,-99.99,,2013-02-23 12:11:00,
2013-02-23 07:22:00,73.0,67.0,30.00,South,176,10.0,15.0,81,-99.99,,,-99.99,,2013-02-23 12:22:00,
2013-02-23 17:11:00,77.0,70.0,29.92,South,173,13.0,23.0,78,-99.99,,,-99.99,,2013-02-23 22:11:00,
2013-02-23 17:22:00,77.0,70.0,29.92,South,172,14.0,21.0,78,-99.99,,,-99.99,,2013-02-23 22:22:00,
2013-02-23 17:32:00,77.0,70.0,29.92,South,171,15.0,23.0,78,-99.99,,,-99.99,,2013-02-23 22:32:00,
2013-02-23 17:42:00,76.0,70.0,29.92,South,174,15.0,22.0,79,-99.99,,,-99.99,,2013-02-23 22:42:00,
2013-02-23 17:52:00,76.0,70.0,29.92,South,171,12.0,20.0,81,-99.99,,,-99.99,,2013-02-23 22:52:00,
2013-02-23 18:01:00,76.0,70.0,29.92,South,171,12.0,20.0,81,-99.99,,,-99.99,,2013-02-23 23:01:00,
2013-02-23 18:11:00,76.0,70.0,29.92,South,174,12.0,21.0,81,-99.99,,,-99.99,,2013-02-23 23:11:00,
2013-02-23 18:22:00,75.0,70.0,29.92,South,173,12.0,21.0,83,-99.99,,,-99.99,,2013-02-23 23:22:00,
2013-02-23 18:32:00,75.0,70.0,29.92,South,173,12.0,21.0,83,-99.99,,,-99.99,,2013-02-23 23:32:00,
2013-02-23 18:42:00,75.0,70.0,29.92,South,174,12.0,19.0,83,-99.99,,,-99.99,,2013-02-23 23:42:00,
2013-02-23 18:52:00,75.0,70.0,29.92,South,178,11.0,20.0,83,-99.99,,,-99.99,,2013-02-23 23:52:00,
2013-02-23 19:01:00,75.0,70.0,29.92,South,178,11.0,20.0,83,-99.99,,,-99.99,,2013-02-24 00:01:00,
2013-02-23 19:11:00,75.0,70.0,29.93,South,181,9.0,18.0,83,-99.99,,,-99.99,,2013-02-24 00:11:00,
2013-02-23 19:22:00,76.0,70.0,29.94,South,182,8.0,15.0,83,-99.99,,,-99.99,,2013-02-24 00:22:00,
2013-02-23 19:32:00,76.0,70.0,29.94,South,182,8.0,15.0,83,-99.99,,,-99.99,,2013-02-24 00:32:00,
2013-02-23 19:42:00,75.0,71.0,29.94,South,186,7.0,16.0,86,-99.99,,,-99.99,,2013-02-24 00:42:00,
2013-02-23 19:52:00,73.0,71.0,29.95,South,191,8.0,18.0,92,-99.99,,,-99.99,,2013-02-24 00:52:00,
2013-02-23 20:01:00,73.0,71.0,29.95,South,191,8.0,18.0,92,-99.99,,,-99.99,,2013-02-24 01:01:00,
2013-02-23 20:11:00,72.0,70.0,29.95,SW,216,2.0,8.0,93,-99.99,,,-99.99,,2013-02-24 01:11:00,
2013-02-23 20:22:00,72.0,70.0,29.95,SW,216,2.0,8.0,93,-99.99,,,-99.99,,2013-02-24 01:22:00,
2013-02-23 20:32:00,70.0,68.0,29.95,SSE,160,3.0,6.0,92,-99.99,,,-99.99,,2013-02-24 01:32:00,
2013-02-23 20:42:00,70.0,67.0,29.96,SSE,160,5.0,9.0,92,-99.99,,,-99.99,,2013-02-24 01:42:00,
2013-02-23 20:52:00,70.0,68.0,29.96,South,171,5.0,9.0,93,-99.99,,,-99.99,,2013-02-24 01:52:00,
2013-02-23 21:01:00,70.0,68.0,29.96,South,171,5.0,9.0,93,-99.99,,,-99.99,,2013-02-24 02:01:00,
2013-02-23 21:11:00,70.0,68.0,29.96,South,174,5.0,8.0,93,-99.99,,,-99.99,,2013-02-24 02:11:00,
2013-02-23 21:22:00,70.0,68.0,29.96,South,174,5.0,8.0,93,-99.99,,,-99.99,,2013-02-24 02:22:00,
2013-02-23 21:32:00,70.0,68.0,29.96,South,175,5.0,8.0,91,-99.99,,,-99.99,,2013-02-24 02:32:00,
2013-02-23 21:42:00,70.0,68.0,29.97,South,184,2.0,6.0,92,-99.99,,,-99.99,,2013-02-24 02:42:00,
2013-02-23 21:52:00,70.0,68.0,29.97,South,191,1.0,4.0,92,-99.99,,,-99.99,,2013-02-24 02:52:00,
2013-02-23 22:02:00,70.0,68.0,29.97,South,191,1.0,4.0,92,-99.99,,,-99.99,,2013-02-24 03:02:00,
2013-02-23 22:11:00,70.0,68.0,29.97,South,191,1.0,2.0,93,-99.99,,,-99.99,,2013-02-24 03:11:00,
2013-02-23 22:22:00,70.0,68.0,29.97,South,191,1.0,2.0,93,-99.99,,,-99.99,,2013-02-24 03:22:00,
2013-02-23 22:32:00,70.0,68.0,29.98,South,184,1.0,4.0,93,-99.99,,,-99.99,,2013-02-24 03:32:00,
2013-02-23 22:42:00,70.0,68.0,29.98,South,184,1.0,4.0,93,-99.99,,,-99.99,,2013-02-24 03:42:00,
2013-02-23 22:52:00,70.0,68.0,29.98,SW,223,2.0,4.0,93,-99.99,,,-99.99,,2013-02-24 03:52:00,
2013-02-23 23:02:00,70.0,68.0,29.98,SW,223,2.0,4.0,93,-99.99,,,-99.99,,2013-02-24 04:02:00,
2013-02-23 23:11:00,70.0,68.0,29.98,SSW,212,1.0,5.0,93,-99.99,,,-99.99,,2013-02-24 04:11:00,
2013-02-23 23:22:00,71.0,69.0,29.98,South,191,1.0,3.0,93,-99.99,,,-99.99,,2013-02-24 04:22:00,
2013-02-23 23:32:00,71.0,69.0,29.98,South,191,1.0,3.0,93,-99.99,,,-99.99,,2013-02-24 04:32:00,
2013-02-23 23:42:00,71.0,69.0,29.98,SW,229,2.0,4.0,93,-99.99,,,-99.99,,2013-02-24 04:42:00,
2013-02-23 23:52:00,70.0,68.0,29.98,SW,219,2.0,4.0,93,-99.99,,,-99.99,,2013-02-24 04:52:00,